CZ-6A DEB, 54935

Orbit data source: Space-Track

CZ-6A DEB, 54935 is space debris in SSO originally from a launch on Fri, 11 Nov 2022 UTC launched from the Taiyaun Space Center, China (TSC). Debris objects in space refer to the collection of defunct objects orbiting the Earth. Examples of debris include non-operational satellites, rocket bodies, and fragments generated from explosions, collisions, or faulty payload assembly.

Loading next visibility...
Identifier
54935, 2022-151RY
Orbit
SSO
Country
Flag of CNCN / PRC
Related business
Manufacturer
SAST
Mission
Spacecraft
Bus & Motor
Unknown
Mass
Unknown
Launch date (UTC)
2022-11-11 (4 years ago)
Launch vehicle
Unknown
Launch site
Taiyaun Space Center, China (TSC)
Object type
Payload
Rocket body
Debris
Shape & HBR
Unknown shape, 0.1 m
Radar Cross Section
Small (<0.1 m²)

Expand to show TLE details & history
Last TLE update: 7 hours ago

TLE from 7 hours ago
0 CZ-6A DEB
1 54935U 22151RY  26236.53250347  .00002063  00000-0  76153-3 0  9991
2 54935  98.7295 262.6062 0006554 139.8181 220.3488 14.33548663196414
Epoch: 2026-08-24T12:46Z
TLE epoch observation values (Epoch: 2026-08-24T12:46:48.299Z)
Latitude
-0.00009°
Longitude
98.09212°
Altitude
786.403 km
Speed
7.459 km/s
True Right ascension
17h 30m 25s
True Declination
0° 00' 00"
Sunlit
Object was in daylight at epoch
Visualization orbit readout
Latitude
Unknown
Longitude
Unknown
Altitude
Unknown
Speed
Unknown
Apparent Right ascension
Unknown
Apparent Declination
Unknown
Sunlit
N/A
Visualization observer readout
Local Sidereal Time
10:50:46
Azimuth
Unknown
Elevation
Unknown
Doppler factor
Unknown
Orbital elements
Apogee altitude
781.725 km
Perigee altitude
772.346 km
Semi-major axis
7,155.172 km
Eccentricity
0.00066
Inclination
98.7295°
RAAN
262.6062°
Arg. of periapsis
139.8181°
True anomaly
220.30021°
Mean anomaly
220.3488°
Eccentric anomaly
220.3245°
Mean motion
3.58602 °/min
Orbital period
100.39 mins
BSTAR
0.00076153
Loading maneuver chart data...
Computing Atmospheric mass density...
Loading historical data...
Loading historical data...
Loading historical data...
Loading historical data...
Loading historical data...
Loading historical data...
Loading historical data...

Documentation

Showing up to 5 results
|